Weather History for Casement, Ireland

Change the Weather History Date:

Saturday, November 16, 2013

  Actual Average (EIDW) Record (EIDW)
Temperature  
Mean Temperature 50 °F -  
Max Temperature 51 °F 46 °F 62 °F (1997)
Min Temperature 48 °F 36 °F 26 °F (1998)
Degree Days  
Heating Degree Days 16    
Moisture  
Dew Point 45 °F    
Average Humidity 85    
Maximum Humidity 100    
Minimum Humidity 74    
Precipitation  
Precipitation 0.00 in - - ()
Sea Level Pressure  
Sea Level Pressure 30.43 in    
Wind  
Wind Speed 10 mph ()    
Max Wind Speed 16 mph    
Max Gust Speed -    
Visibility 7.4 miles    
Events Rain    
Averages and records for this station are not official NWS values.
T = Trace of Precipitation, MM = Missing Value Source: Averaged Metar Reports

Daily Weather History Graph

Daily Weather History Graph

Search for Another Location

Airport:

Trip Planner

Search our weather history database for the weather conditions in past years. The results will help you decide how hot, cold, wet, or windy it might be!

Date:

Astronomy

Nov. 16, 2013 Rise Set
Actual Time 7:52 AM GMT 4:27 PM GMT
Civil Twilight 7:13 AM GMT 5:06 PM GMT
Nautical Twilight 6:30 AM GMT 5:49 PM GMT
Astronomical Twilight 5:49 AM GMT 6:30 PM GMT
Moon 4:00 PM GMT (11/16) 6:26 AM GMT (11/16)
Length of Visible Light 9h 53m
Length of Day
8h 35m
Waxing Gibbous, 99% of the Moon is Illuminated
Nov 16
Waxing Gibbous
Nov 17
Full
Nov 25
Last Quarter
Dec 3
New
Dec 9
First Quarter

Hourly Weather History & Observations

Time (GMT) Temp. Dew Point Humidity Pressure Visibility Wind Dir Wind Speed Gust Speed Precip Events Conditions
12:00 AM 49 °F 43 °F 74% 30.52 in 11 mi WSW 11.2 mph - -   Overcast
12:00 AM 48.2 °F 42.8 °F 82% 30.51 in 6.2 mi WSW 10.4 mph - N/A   Overcast
1:00 AM 48.2 °F 42.8 °F 82% 30.48 in 6.2 mi WSW 11.5 mph - N/A   Overcast
2:00 AM 48.2 °F 42.8 °F 82% 30.48 in 6.2 mi SW 9.2 mph - N/A   Overcast
3:00 AM 48.2 °F 42.8 °F 82% 30.48 in 6.2 mi SW 9.2 mph - N/A   Overcast
4:00 AM 48.2 °F 42.8 °F 82% 30.45 in 6.2 mi SW 9.2 mph - N/A   Overcast
5:00 AM 48.2 °F 42.8 °F 82% 30.45 in 6.2 mi SW 10.4 mph - N/A   Overcast
6:00 AM 49 °F 43 °F 74% 30.45 in 12 mi SW 11.2 mph - -   Overcast
6:00 AM 48.2 °F 42.8 °F 82% 30.42 in 6.2 mi SW 10.4 mph - N/A   Overcast
7:00 AM 50.0 °F 42.8 °F 76% 30.45 in 6.2 mi SW 11.5 mph - N/A   Overcast
8:00 AM 48.2 °F 44.6 °F 87% 30.45 in 6.2 mi SW 11.5 mph - N/A   Mostly Cloudy
9:00 AM 50.0 °F 44.6 °F 82% 30.45 in 6.2 mi SW 13.8 mph - N/A   Mostly Cloudy
10:00 AM 50.0 °F 44.6 °F 82% 30.45 in 6.2 mi SW 11.5 mph - N/A   Overcast
11:00 AM 50.0 °F 44.6 °F 82% 30.42 in 6.2 mi SW 12.7 mph - N/A   Overcast
12:00 PM 51 °F 46 °F 76% 30.44 in 16 mi SW 15.7 mph - - Rain Light Drizzle
12:00 PM 50.0 °F 46.4 °F 87% 30.42 in 6.2 mi SW 15.0 mph - N/A   Overcast
1:00 PM 50.0 °F 46.4 °F 87% 30.42 in 6.2 mi SW 12.7 mph - N/A   Mostly Cloudy
2:00 PM 50.0 °F 48.2 °F 94% 30.42 in 6.2 mi SW 13.8 mph - N/A   Light Drizzle
3:00 PM 50.0 °F 48.2 °F 94% 30.39 in 6.2 mi SW 15.0 mph - N/A   Scattered Clouds
4:00 PM 50.0 °F 46.4 °F 87% 30.39 in 6.2 mi SSW 12.7 mph - N/A   Mostly Cloudy
5:00 PM 50.0 °F 46.4 °F 87% 30.39 in 6.2 mi SSW 13.8 mph - N/A   Mostly Cloudy
6:00 PM 51 °F 47 °F 83% 30.41 in 19 mi SW 13.4 mph - -   Partly Cloudy
6:00 PM 51.8 °F 48.2 °F 88% 30.39 in 6.2 mi SSW 13.8 mph - N/A   Mostly Cloudy
7:00 PM 50.0 °F 48.2 °F 94% 30.39 in 6.2 mi SW 13.8 mph - N/A   Mostly Cloudy
8:00 PM 50.0 °F 48.2 °F 94% 30.39 in 6.2 mi SW 13.8 mph - N/A   Mostly Cloudy
9:00 PM 48.2 °F 48.2 °F 100% 30.39 in 6.2 mi SW 11.5 mph - N/A   Scattered Clouds
10:00 PM 50.0 °F 48.2 °F 94% 30.39 in 6.2 mi WSW 10.4 mph - N/A   Mostly Cloudy
11:00 PM 50.0 °F 48.2 °F 94% 30.39 in 6.2 mi SW 11.5 mph - N/A   Mostly Cloudy